Location: Natural Bridges National Monument
(37.6093°N, 109.9767°W)
Time: 11:27:15
(UTC-06:00)

Amateur Radio Satellites - All Passes

Search period start: 30 October 2014 10:57
Search period end: 31 October 2014 10:57
Location: Natural Bridges National Monument, 37.6093°N, 109.9767°W

Satellite Date Start Highest point End Downlink Frequencies (MHz)
Time Altitude Azimuth
ISS 30 Oct 11:00:01 11:03:19 87° 139° (SE) 11:06:40 145.800 FM
SO-50 30 Oct 11:22:48 11:26:51 35° 114° (ESE) 11:31:02 436.795 FM
Sapphire 30 Oct 11:23:12 11:27:16 21° 49° (NE) 11:31:18 437.095 MHz 1200 baud AX-25 AFSK
Oscar 11 30 Oct 11:24:21 11:28:35 58° 285° (WNW) 11:32:49 145.825 FM, Beacon 2401.500 USB
HO-68 30 Oct 11:31:05 11:37:33 38° 295° (WNW) 11:44:00 435.675 MHz FM
FUNcube-1 30 Oct 11:38:02 11:42:15 79° 102° (ESE) 11:46:23 145.950 - 145.970 MHz USB
PCSat 30 Oct 11:44:31 11:49:23 32° 54° (NE) 11:54:13 145.825 MHz
KITSAT 1 30 Oct 12:11:38 12:19:40 68° 301° (WNW) 12:27:44 435.175 FM
UOSAT-12 30 Oct 12:16:23 12:17:20 11° 106° (ESE) 12:18:17 437.025 FM, 437.400 FM
UKube-1 30 Oct 12:26:09 12:28:15 13° 296° (WNW) 12:30:20 145.840 MHz, 145.915 MHz
ZACube-1 30 Oct 12:31:48 12:35:11 24° 291° (WNW) 12:38:31 437.345 MHz
ISS 30 Oct 12:38:20 12:40:25 15° 337° (NNW) 12:42:30 145.800 FM
Oscar 19 30 Oct 12:55:17 12:58:40 18° 64° (ENE) 13:02:02 437.125 CW, 437.150 USB
SO-50 30 Oct 13:03:47 13:07:28 24° 311° (NW) 13:11:16 436.795 FM
Sapphire 30 Oct 13:05:44 13:11:03 56° 247° (WSW) 13:16:19 437.095 MHz 1200 baud AX-25 AFSK
PCSat 30 Oct 13:27:56 13:32:44 33° 251° (WSW) 13:37:29 145.825 MHz
AO-27 30 Oct 13:29:13 13:32:15 16° 63° (ENE) 13:35:18 436.795 MHz FM
Oscar 16 30 Oct 13:40:15 13:45:12 49° 72° (ENE) 13:50:10 437.025 USB, Beacon 2401.1428
UOSAT-12 30 Oct 13:52:11 13:56:47 74° 302° (WNW) 14:01:31 437.025 FM, 437.400 FM
JAS-1B 30 Oct 14:05:33 14:11:21 74° 74° (ENE) 14:17:02 435.800 - 435.900 CW/SSB
Uribyol 2 30 Oct 14:11:21 14:16:12 41° 70° (ENE) 14:21:06 436.500 FM
KITSAT 1 30 Oct 14:11:38 14:16:40 17° 324° (NW) 14:21:44 435.175 FM
ITAMSAT 1 30 Oct 14:18:56 14:23:52 46° 71° (ENE) 14:28:51 435.822 SSB
AO-Echo 30 Oct 14:23:43 14:28:37 65° 74° (ENE) 14:33:42 ?
Oscar 19 30 Oct 14:32:34 14:37:34 52° 260° (W) 14:42:35 437.125 CW, 437.150 USB
Saudisat 1A 30 Oct 14:37:16 14:40:36 20° 48° (NE) 14:43:55 436.775 MHz
AO-7 30 Oct 15:00:58 15:06:41 21° 54° (NE) 15:12:24 29.400 - 29.500 MHz
AO-27 30 Oct 15:06:03 15:11:12 62° 259° (WSW) 15:16:24 436.795 MHz FM
Gurwin Techsat 1B 30 Oct 15:15:37 15:20:55 83° 76° (ENE) 15:26:15 435.225 FM
Oscar 16 30 Oct 15:21:25 15:24:48 18° 267° (W) 15:28:11 437.025 USB, Beacon 2401.1428
TMSAT-1 30 Oct 15:22:41 15:27:57 72° 74° (ENE) 15:33:15 436.925 FM
UOSAT-12 30 Oct 15:36:32 15:37:46 11° 320° (NW) 15:39:00 437.025 FM, 437.400 FM
Uribyol 2 30 Oct 15:51:50 15:55:48 22° 266° (W) 15:59:47 436.500 FM
ISS 30 Oct 15:55:06 15:56:19 12° 18° (NNE) 15:57:33 145.800 FM
ITAMSAT 1 30 Oct 15:59:50 16:03:33 20° 266° (W) 16:07:17 435.822 SSB
JAS-1B 30 Oct 16:01:10 16:02:41 11° 270° (W) 16:04:11 435.800 - 435.900 CW/SSB
AO-Echo 30 Oct 16:05:46 16:07:52 13° 270° (W) 16:09:59 ?
Uosat F 30 Oct 16:14:56 16:19:19 31° 69° (ENE) 16:23:43 435.120 FM
Saudisat 1A 30 Oct 16:16:09 16:20:20 42° 245° (WSW) 16:24:29 436.775 MHz
AO-7 30 Oct 16:50:11 16:58:28 84° 253° (WSW) 17:06:49 29.400 - 29.500 MHz
Gurwin Techsat 1B 30 Oct 17:00:54 17:01:28 10° 271° (W) 17:02:02 435.225 FM
TMSAT-1 30 Oct 17:06:13 17:08:21 12° 270° (W) 17:10:30 436.925 FM
ISS 30 Oct 17:30:25 17:33:40 48° 36° (NE) 17:36:55 145.800 FM
JAS-2 30 Oct 17:32:56 17:38:52 50° 69° (ENE) 17:45:35 435.800 - 435.900 CW/SSB, 435.910 FM
Uosat F 30 Oct 17:53:48 17:58:02 27° 264° (W) 18:02:19 435.120 FM
Hamsat 30 Oct 18:02:59 18:07:01 49° 74° (ENE) 18:11:03 145.90 MHz
KITSAT 1 30 Oct 18:14:07 18:16:52 12° 27° (NNE) 18:19:37 435.175 FM
OPAL 30 Oct 18:20:41 18:25:25 44° 101° (ESE) 18:30:08 ?
AO-7 30 Oct 18:48:14 18:52:17 14° 270° (W) 18:56:21 29.400 - 29.500 MHz
ISS 30 Oct 19:08:03 19:10:04 15° 231° (SW) 19:12:05 145.800 FM
AO-40 30 Oct 19:09:07 01:18:41 47° 159° (SSE) 02:58:20 Beacon 2401.320
JAS-2 30 Oct 19:19:19 19:24:16 25° 269° (W) 19:29:44 435.800 - 435.900 CW/SSB, 435.910 FM
Oscar 10/S400 30 Oct 19:29:15 19:56:09 63° 191° (S) 05:26:11 145.825 - 145.975 CW/USB, Beacon 145.810 USB
SO-67 30 Oct 19:29:17 19:32:39 57° 76° (ENE) 19:36:02 435.3500 MHz FM
Hamsat 30 Oct 19:41:41 19:43:13 12° 269° (W) 19:44:45 145.90 MHz
SO-50 30 Oct 19:56:07 20:00:00 23° 48° (NE) 20:03:54 436.795 FM
OPAL 30 Oct 20:00:28 20:03:58 20° 297° (WNW) 20:07:27 ?
KITSAT 1 30 Oct 20:07:07 20:14:45 44° 53° (NE) 20:22:21 435.175 FM
HO-68 30 Oct 20:10:50 20:16:24 25° 61° (ENE) 20:21:59 435.675 MHz FM
STRAND 1 30 Oct 20:15:29 20:20:40 84° 103° (ESE) 20:25:47 ?
RS-15 30 Oct 20:23:07 20:32:01 29° 104° (ESE) 20:40:47 29.354 - 29.394 USB, Beacon 29.352 USB
SO-50 30 Oct 21:36:07 21:40:44 44° 245° (WSW) 21:45:21 436.795 FM
UKube-1 30 Oct 21:41:53 21:45:50 35° 71° (ENE) 21:49:50 145.840 MHz, 145.915 MHz
ZACube-1 30 Oct 21:50:33 21:53:35 18° 67° (ENE) 21:56:36 437.345 MHz
HO-68 30 Oct 21:56:31 22:03:33 61° 258° (WSW) 22:10:40 435.675 MHz FM
STRAND 1 30 Oct 21:57:33 21:59:05 11° 300° (WNW) 22:00:37 ?
MaSat-1 30 Oct 22:02:11 22:05:24 23° 108° (ESE) 22:08:23 437.345 MHz
KITSAT 1 30 Oct 22:02:40 22:10:03 41° 251° (WSW) 22:17:26 435.175 FM
Oscar 11 30 Oct 22:17:05 22:21:24 84° 77° (ENE) 22:25:44 145.825 FM, Beacon 2401.500 USB
UOSAT-12 30 Oct 22:23:41 22:28:19 55° 56° (NE) 22:32:51 437.025 FM, 437.400 FM
FUNcube-1 30 Oct 22:32:02 22:36:25 50° 74° (ENE) 22:40:44 145.950 - 145.970 MHz USB
RS-15 30 Oct 22:32:25 22:43:22 70° 304° (WNW) 22:54:18 29.354 - 29.394 USB, Beacon 29.352 USB
UKube-1 30 Oct 23:19:08 23:22:06 18° 266° (W) 23:25:06 145.840 MHz, 145.915 MHz
ZACube-1 30 Oct 23:25:24 23:29:40 40° 262° (W) 23:33:54 437.345 MHz
MaSat-1 30 Oct 23:37:39 23:40:44 22° 300° (WNW) 23:43:35 437.345 MHz
UOSAT-12 31 Oct 00:05:20 00:07:58 15° 252° (WSW) 00:10:34 437.025 FM, 437.400 FM
FUNcube-1 31 Oct 00:10:44 00:13:00 14° 268° (W) 00:15:16 145.950 - 145.970 MHz USB
RS-15 31 Oct 00:50:10 00:58:11 22° 331° (NNW) 01:06:19 29.354 - 29.394 USB, Beacon 29.352 USB
JAS-1B 31 Oct 01:49:56 01:56:01 26° 96° (E) 02:02:53 435.800 - 435.900 CW/SSB
Oscar 16 31 Oct 01:54:44 01:58:28 20° 94° (E) 02:02:11 437.025 USB, Beacon 2401.1428
Sapphire 31 Oct 02:03:22 02:07:40 25° 107° (ESE) 02:11:59 437.095 MHz 1200 baud AX-25 AFSK
PCSat 31 Oct 02:24:10 02:29:13 42° 111° (ESE) 02:34:19 145.825 MHz
Uribyol 2 31 Oct 02:27:10 02:30:27 17° 93° (E) 02:33:43 436.500 FM
AO-Echo 31 Oct 02:33:25 02:37:50 26° 95° (E) 02:42:10 ?
ITAMSAT 1 31 Oct 02:34:43 02:38:21 19° 93° (E) 02:41:58 435.822 SSB
Oscar 19 31 Oct 02:45:55 02:51:01 65° 102° (ESE) 02:56:06 437.125 CW, 437.150 USB
RS-15 31 Oct 03:10:44 03:16:40 15° 9° (N) 03:22:39 29.354 - 29.394 USB, Beacon 29.352 USB
AO-27 31 Oct 03:21:04 03:26:12 56° 101° (E) 03:31:18 436.795 MHz FM
Oscar 16 31 Oct 03:33:09 03:37:58 43° 289° (WNW) 03:42:46 437.025 USB, Beacon 2401.1428
Gurwin Techsat 1B 31 Oct 03:34:04 03:39:02 39° 98° (E) 03:43:57 435.225 FM
JAS-1B 31 Oct 03:39:39 03:46:41 60° 288° (WNW) 03:55:04 435.800 - 435.900 CW/SSB
TMSAT-1 31 Oct 03:40:53 03:45:38 33° 97° (E) 03:50:21 436.925 FM
Sapphire 31 Oct 03:45:43 03:50:48 41° 303° (WNW) 03:55:56 437.095 MHz 1200 baud AX-25 AFSK
Uribyol 2 31 Oct 04:05:10 04:10:12 52° 288° (WNW) 04:15:12 436.500 FM
PCSat 31 Oct 04:08:16 04:12:46 26° 308° (NW) 04:17:18 145.825 MHz
AO-Echo 31 Oct 04:11:46 04:16:35 36° 290° (WNW) 04:21:21 ?
ITAMSAT 1 31 Oct 04:13:04 04:18:03 47° 289° (WNW) 04:23:00 435.822 SSB
Oscar 19 31 Oct 04:27:06 04:29:47 15° 297° (WNW) 04:32:28 437.125 CW, 437.150 USB
Uosat F 31 Oct 04:27:25 04:28:13 10° 90° (E) 04:29:01 435.120 FM
PANSAT 31 Oct 04:45:45 04:48:01 15° 167° (SSE) 04:50:16 not established
AO-7 31 Oct 04:54:18 05:01:54 38° 99° (E) 05:09:26 29.400 - 29.500 MHz
AO-27 31 Oct 05:01:55 05:05:13 17° 297° (WNW) 05:08:31 436.795 MHz FM
Gurwin Techsat 1B 31 Oct 05:14:31 05:18:44 25° 294° (WNW) 05:22:57 435.225 FM
TMSAT-1 31 Oct 05:20:56 05:25:25 28° 292° (WNW) 05:29:52 436.925 FM
RS-15 31 Oct 05:23:53 05:33:52 36° 42° (NE) 05:44:09 29.354 - 29.394 USB, Beacon 29.352 USB
OPAL 31 Oct 05:33:35 05:38:40 67° 72° (ENE) 05:43:42 ?
STRAND 1 31 Oct 05:54:26 05:56:07 12° 61° (ENE) 05:57:48 ?
Uosat F 31 Oct 06:02:28 06:07:31 77° 285° (WNW) 06:12:32 435.120 FM
Saudisat 1A 31 Oct 06:20:12 06:24:33 78° 119° (ESE) 06:28:58 436.775 MHz
PANSAT 31 Oct 06:24:38 06:27:34 21° 180° (S) 06:30:29 not established
JAS-2 31 Oct 06:28:32 06:36:18 59° 100° (E) 06:43:43 435.800 - 435.900 CW/SSB, 435.910 FM
AO-7 31 Oct 06:46:54 06:54:42 46° 296° (WNW) 07:02:31 29.400 - 29.500 MHz
OPAL 31 Oct 07:15:43 07:17:56 13° 266° (W) 07:20:09 ?
Hamsat 31 Oct 07:26:01 07:30:11 59° 285° (WNW) 07:34:21 145.90 MHz
STRAND 1 31 Oct 07:29:25 07:34:33 83° 257° (WSW) 07:39:44 ?
RS-15 31 Oct 07:35:59 07:47:07 72° 245° (WSW) 07:58:47 29.354 - 29.394 USB, Beacon 29.352 USB
MaSat-1 31 Oct 07:48:35 07:50:11 16° 58° (ENE) 07:51:45 437.345 MHz
Saudisat 1A 31 Oct 08:02:39 08:04:40 13° 317° (NW) 08:06:41 436.775 MHz
PANSAT 31 Oct 08:04:48 08:07:07 15° 192° (SSW) 08:09:27 not established
JAS-2 31 Oct 08:14:16 08:20:45 30° 297° (WNW) 08:27:06 435.800 - 435.900 CW/SSB, 435.910 FM
SO-67 31 Oct 08:26:58 08:30:26 87° 282° (WNW) 08:33:52 435.3500 MHz FM
HO-68 31 Oct 09:26:49 09:32:57 30° 96° (E) 09:39:01 435.675 MHz FM
RS-15 31 Oct 09:52:48 09:57:31 13° 263° (W) 10:02:19 29.354 - 29.394 USB, Beacon 29.352 USB
Oscar 11 31 Oct 10:07:41 10:10:34 17° 94° (E) 10:13:25 145.825 FM, Beacon 2401.500 USB
ISS 31 Oct 10:11:05 10:14:15 44° 135° (SE) 10:17:26 145.800 FM
KITSAT 1 31 Oct 10:33:33 10:40:45 37° 108° (ESE) 10:47:57 435.175 FM
